STARLINK-5786 (56032 NORAD) Tracking and Keplerian Element Data

This shows tracking and keplerian element data for the satellite.

Feedback or suggestion? Click here.




ElementValue
Catalog56032
NameSTARLINK-5786
Epoch Orbit719
Epoch Day127.16667824
Epoch Year2023
RAAN292.1842
Inclination42.999
Eccentricity0.0001435
Argument of Perigee275.1741
Mean Anonmoly172.7597
Mean Motion15.547008
Decay Rate-0.00926523
L11 56032U 23042AY 23127.16667824 -.00926523 00000+0 -15013-1 0 9991
L22 56032 42.9990 292.1842 0001435 275.1741 172.7597 15.54700800 7194



Live tracking and technical data element details for STARLINK-5786 (NORAD 56032). STARLINK-5786 can be tracked NOW for your location showing map with azimuth and elevation plus other details from your city location.







IsCatalogInMostPopularTable: catalog: 56032, numindb: 2
Update: records affected: 1



GetName: 56032 STARLINK-5786

Hit Count: updated at: Sat, 03 Jun 2023 17:52:43 GMT